Tracking 22081 objects as of 4-Dec-2020
HD Live streaming from Space Station
objects crossing your sky now

USA 37

Track USA 37 now!
USA 37 is classified as:


NORAD ID: 19976
Int'l Code: 1989-035A
Perigee: 31,711.3 km
Apogee: 39,877.2 km
Inclination: 7.9 °
Period: 1,436.1 minutes
Semi major axis: 42165 km
RCS: Unknown
Launch date: May 10, 1989
Source: United States (US)
Launch site: AIR FORCE EASTERN TEST RANGE (AFETR)
aabbcc
Your satellite tracking list
Your tracking list is empty




NASA's NSSDC Master Catalog

Two Line Element Set (TLE):
1 19976U 89035A   20182.98874869 0.00000000  00000-0  00000-0 0    02
2 19976   7.9491   6.0324 0968314 301.5718  49.3358  1.00270000    07
Source of the keplerian elements: McCants